Вернуться в каталог

STARLINK-2606

АктивенСвязьVLEO
NORAD 48386·PAYLOAD·🇺🇸 United States

Запущен May 4, 2021 с Cape Canaveral Space Force Station

Loading…

Ближайшие Пролёты (ближайшие 24 часа)

TLE

СвежийSource: CelesTrak SupGP

Эпоха: Sep 14, 2026, 21:23 UTC

1 48386C 21038AK  26257.89145833 -.00014290  00000+0 -45966-3 0  2573
2 48386  53.1600 185.0385 0001523  88.8243 136.4160 15.31698454    18

Отслеживайте STARLINK-2606 в реальном времени с AllMySat

Download on the App Store